1510884000.83,29888,9.13,73778.8,-2.23,-4.21,-4.33,0,*53
1510884002.06,29889,9.13,73780.3,-2.21,-4.13,-4.25,0,*56
1510884003.26,29890,9.06,73774.5,-2.23,-4.17,-4.33,0,*5F
1510884004.46,29891,9.13,73776.5,-2.23,-4.21,-4.45,0,*5A
1510884005.67,29892,9.13,73778.3,-2.23,-4.21,-4.29,0,*53
1510884006.9,29893,9.13,73776.0,-2.21,-4.25,-4.29,0,*54
1510884008.13,29894,9.13,73776.3,-2.21,-4.25,-4.29,0,*53
1510884009.33,29895,9.13,73774.8,-2.23,-4.29,-4.33,0,*57
1510884010.55,29896,9.13,73778.3,-2.21,-4.17,-4.29,0,*50
1510884011.76,29897,9.13,73778.8,-2.23,-4.21,-4.33,0,*5D
1510884012.96,29898,9.13,73780.8,-2.23,-4.21,-4.33,0,*52
1510884014.19,29899,9.13,73776.8,-2.21,-4.25,-4.37,0,*51
1510884015.4,29900,9.13,73782.8,-2.23,-4.21,-4.41,0,*57
1510884016.63,29901,9.13,73782.8,-2.21,-4.17,-4.29,0,*5F
1510884017.83,29902,9.13,73776.5,-2.23,-4.25,-4.37,0,*50
1510884019.03,29903,9.13,73780.0,-2.23,-4.29,-4.45,0,*58
1510884020.23,29904,9.13,73778.0,-2.23,-4.29,-4.41,0,*5B
1510884021.46,29905,9.13,73784.5,-2.21,-4.25,-4.37,0,*55
1510884022.66,29906,9.13,73786.3,-2.23,-4.29,-4.33,0,*5C
1510884023.88,29907,9.13,73778.0,-2.21,-4.17,-4.29,0,*59
1510884025.08,29908,9.13,73778.5,-2.27,-4.29,-4.41,0,*53
1510884026.31,29909,9.13,73778.8,-2.21,-4.25,-4.37,0,*59
1510884027.51,29910,9.13,73776.3,-2.23,-4.29,-4.41,0,*5E
1510884028.71,29911,9.13,73776.5,-2.23,-4.29,-4.33,0,*5A
1510884029.91,29912,9.13,73782.8,-2.23,-4.29,-4.33,0,*59
1510884031.12,29913,9.13,73778.0,-2.23,-4.29,-4.29,0,*53
1510884032.32,29914,9.13,73780.0,-2.23,-4.21,-4.29,0,*5C
1510884033.55,29915,9.13,73782.0,-2.21,-4.25,-4.37,0,*54
1510884034.76,29916,9.13,73776.3,-2.23,-4.21,-4.41,0,*50
1510884035.96,29917,9.13,73778.8,-2.23,-4.29,-4.41,0,*59
1510884037.16,29918,9.13,73778.0,-2.23,-4.29,-4.41,0,*56
1510884038.39,29919,9.13,73782.3,-2.21,-4.13,-4.29,0,*52
1510884039.6,29920,9.13,73782.3,-2.23,-4.21,-4.41,0,*55
1510884040.82,29921,9.13,73784.8,-2.21,-4.17,-4.33,0,*56
1510884042.04,29922,9.06,73782.0,-2.21,-4.17,-4.29,0,*5E
1510884043.24,29923,9.13,73782.0,-2.23,-4.17,-4.33,0,*56
1510884044.44,29924,9.06,73778.3,-2.23,-4.33,-4.33,0,*57
1510884045.64,29925,9.06,73774.5,-2.23,-4.29,-4.41,0,*58
1510884046.84,29926,9.13,73776.0,-2.23,-4.33,-4.45,0,*54
1510884048.04,29927,9.13,73776.3,-2.23,-4.29,-4.45,0,*5E
1510884049.24,29928,9.13,73772.8,-2.23,-4.29,-4.45,0,*51
1510884050.44,29929,9.13,73774.0,-2.23,-4.29,-4.41,0,*54
1510884051.64,29930,9.13,73772.5,-2.23,-4.29,-4.41,0,*5C
1510884052.84,29931,9.06,73774.0,-2.23,-4.29,-4.41,0,*5D
1510884054.04,29932,9.13,73772.0,-2.23,-4.33,-4.41,0,*55
1510884055.27,29933,9.13,73774.0,-2.21,-4.29,-4.37,0,*5C
1510884056.47,29934,9.13,73776.3,-2.23,-4.29,-4.45,0,*5C
1510884057.67,29935,9.13,73772.8,-2.23,-4.33,-4.41,0,*52
1510884058.87,29936,9.13,73772.8,-2.23,-4.29,-4.41,0,*5A
1510884060.08,29937,9.13,73774.3,-2.23,-4.21,-4.41,0,*53
1510884061.28,29938,9.13,73774.3,-2.23,-4.21,-4.41,0,*5C
1510884062.49,29939,9.13,73774.8,-2.23,-4.21,-4.41,0,*5D
1510884063.69,29940,9.13,73776.0,-2.23,-4.17,-4.33,0,*53
1510884064.89,29941,9.13,73778.0,-2.23,-4.17,-4.33,0,*52
1510884066.09,29942,9.13,73776.5,-2.23,-4.17,-4.29,0,*5A
1510884067.3,29943,9.06,73776.3,-2.23,-4.21,-4.33,0,*55
1510884068.5,29944,9.13,73778.8,-2.23,-4.21,-4.29,0,*59
1510884069.71,29945,9.13,73776.8,-2.23,-4.21,-4.33,0,*53
1510884070.91,29946,9.06,73778.3,-2.23,-4.17,-4.33,0,*55
1510884072.11,29947,9.13,73776.8,-2.23,-4.17,-4.29,0,*5F
1510884073.31,29948,9.13,73776.3,-2.23,-4.09,-4.29,0,*5F
1510884074.54,29949,9.13,73776.5,-2.21,-4.13,-4.29,0,*57
1510884075.75,29950,9.13,73776.5,-2.23,-4.21,-4.29,0,*5C
1510884076.95,29951,9.06,73776.8,-2.23,-4.21,-4.41,0,*53
1510884078.15,29952,9.13,73776.8,-2.23,-4.17,-4.33,0,*50
1510884079.36,29953,9.13,73776.3,-2.23,-4.21,-4.33,0,*54
1510884080.56,29954,9.13,73778.0,-2.23,-4.21,-4.33,0,*53
1510884081.76,29955,9.13,73776.5,-2.23,-4.17,-4.33,0,*57
1510884082.96,29956,9.13,73776.3,-2.23,-4.17,-4.33,0,*54
1510884084.17,29957,9.13,73778.8,-2.23,-4.21,-4.29,0,*5B
1510884085.37,29958,9.13,73780.8,-2.23,-4.21,-4.33,0,*5F
1510884086.57,29959,9.13,73780.0,-2.23,-4.17,-4.33,0,*5B
1510884087.78,29960,9.13,73776.5,-2.23,-4.21,-4.33,0,*54
1510884088.98,29961,9.13,73778.0,-2.23,-4.17,-4.29,0,*5B
1510884090.19,29962,9.13,73778.5,-2.23,-4.21,-4.33,0,*56
1510884091.39,29963,9.13,73778.5,-2.23,-4.21,-4.29,0,*5C
1510884092.59,29964,9.13,73776.5,-2.23,-4.17,-4.33,0,*55
1510884093.79,29965,9.13,73776.8,-2.23,-4.17,-4.33,0,*54
1510884095.0,29966,9.06,73778.5,-2.27,-4.21,-4.33,0,*56
1510884096.19,29967,9.13,73776.5,-2.27,-4.17,-4.33,0,*52
1510884097.4,29968,9.13,73776.0,-2.27,-4.21,-4.33,0,*58
1510884098.6,29969,9.13,73778.3,-2.27,-4.17,-4.29,0,*57
1510884099.8,29970,9.13,73778.5,-2.23,-4.17,-4.33,0,*50
1510884101.03,29971,9.13,73782.3,-2.21,-4.13,-4.29,0,*5C
1510884102.22,29972,9.13,73782.8,-2.23,-4.17,-4.33,0,*52
1510884103.43,29973,9.13,73780.8,-2.23,-4.21,-4.33,0,*56
1510884104.66,29974,9.13,73782.3,-2.21,-4.05,-4.25,0,*52
1510884105.87,29975,9.13,73780.0,-2.23,-4.21,-4.29,0,*5B
1510884107.07,29976,9.06,73778.5,-2.23,-4.21,-4.33,0,*53
1510884108.27,29977,9.13,73776.3,-2.23,-4.17,-4.29,0,*5C
1510884109.47,29978,9.13,73780.0,-2.23,-4.09,-4.29,0,*5C
1510884110.68,29979,9.13,73780.0,-2.23,-4.21,-4.33,0,*5C
1510884111.88,29980,9.13,73778.5,-2.23,-4.17,-4.41,0,*5A
1510884113.11,29981,9.13,73780.3,-2.21,-4.13,-4.37,0,*5C
1510884114.3,29982,9.06,73778.5,-2.23,-4.17,-4.33,0,*5D
1510884115.51,29983,9.13,73776.8,-2.23,-4.21,-4.41,0,*5C
1510884116.72,29984,9.13,73780.0,-2.27,-4.21,-4.41,0,*5F
1510884117.92,29985,9.13,73776.5,-2.27,-4.17,-4.33,0,*5E
1510884119.11,29986,9.13,73778.5,-2.23,-4.17,-4.33,0,*59
1510884120.32,29987,9.13,73778.8,-2.23,-4.21,-4.41,0,*58
1510884121.52,29988,9.13,73780.5,-2.23,-4.17,-4.33,0,*57
1510884122.72,29989,9.06,73774.8,-2.23,-4.17,-4.33,0,*56
1510884123.92,29990,9.13,73776.8,-2.23,-4.17,-4.41,0,*5B
1510884125.12,29991,9.13,73776.5,-2.23,-4.21,-4.41,0,*5F
1510884126.32,29992,9.13,73776.8,-2.23,-4.17,-4.41,0,*59
1510884127.52,29993,9.13,73774.8,-2.23,-4.17,-4.33,0,*5D
1510884128.72,29994,9.06,73776.5,-2.23,-4.17,-4.33,0,*5A
1510884129.92,29995,9.13,73780.3,-2.27,-4.17,-4.33,0,*5F
1510884131.12,29996,9.13,73778.8,-2.23,-4.17,-4.33,0,*58
1510884132.32,29997,9.13,73780.5,-2.23,-4.17,-4.29,0,*52
1510884133.52,29998,9.13,73780.3,-2.23,-4.17,-4.33,0,*56
1510884134.72,29999,9.13,73780.3,-2.23,-4.09,-4.33,0,*58
1510884135.92,30000,9.13,73780.3,-2.23,-4.09,-4.29,0,*52
1510884137.12,30001,9.13,73782.5,-2.27,-4.17,-4.33,0,*53
1510884138.31,30002,9.13,73782.5,-2.27,-4.17,-4.33,0,*50
1510884139.51,30003,9.13,73780.0,-2.23,-4.17,-4.45,0,*54
1510884140.71,30004,9.13,73780.3,-2.23,-4.17,-4.41,0,*57
1510884141.91,30005,9.13,73780.3,-2.23,-4.17,-4.41,0,*56
1510884143.12,30006,9.06,73778.3,-2.23,-4.21,-4.29,0,*5E
1510884144.32,30007,9.13,73778.5,-2.23,-4.17,-4.41,0,*54
1510884145.52,30008,9.13,73780.5,-2.23,-4.17,-4.41,0,*5B
1510884146.72,30009,9.13,73778.5,-2.23,-4.21,-4.41,0,*5F
1510884147.93,30010,9.06,73772.5,-2.23,-4.21,-4.41,0,*57
1510884149.13,30011,9.13,73776.3,-2.23,-4.13,-4.37,0,*56
1510884150.34,30012,9.13,73782.3,-2.23,-4.21,-4.41,0,*55
1510884151.54,30013,9.13,73782.3,-2.23,-4.29,-4.41,0,*5C
1510884152.74,30014,9.13,73782.3,-2.23,-4.17,-4.41,0,*56
1510884153.94,30015,9.13,73780.0,-2.23,-4.17,-4.41,0,*57
1510884155.15,30016,9.13,73780.5,-2.23,-4.21,-4.41,0,*51
1510884156.35,30017,9.13,73782.0,-2.23,-4.17,-4.45,0,*51
1510884157.55,30018,9.13,73780.5,-2.23,-4.21,-4.41,0,*5F
1510884158.75,30019,9.13,73782.8,-2.23,-4.17,-4.45,0,*5F
1510884159.95,30020,9.13,73778.5,-2.23,-4.17,-4.41,0,*51
1510884161.15,30021,9.13,73782.8,-2.23,-4.17,-4.41,0,*50
1510884162.37,30022,9.06,73776.3,-2.21,-4.13,-4.37,0,*54
1510884163.58,30023,9.13,73780.0,-2.23,-4.21,-4.41,0,*57
1510884164.79,30024,9.13,73776.5,-2.23,-4.21,-4.41,0,*50
1510884165.99,30025,9.13,73782.5,-2.23,-4.21,-4.45,0,*55
1510884167.2,30026,9.13,73780.8,-2.23,-4.21,-4.41,0,*52
1510884168.4,30027,9.13,73780.8,-2.23,-4.21,-4.45,0,*57
1510884169.6,30028,9.13,73780.0,-2.23,-4.29,-4.45,0,*50
1510884170.8,30029,9.13,73782.8,-2.23,-4.21,-4.45,0,*59
1510884172.01,30030,9.13,73782.3,-2.27,-4.21,-4.41,0,*51
1510884173.23,30031,9.06,73778.3,-2.29,-4.21,-4.45,0,*5A
1510884174.44,30032,9.13,73780.0,-2.27,-4.21,-4.45,0,*57
1510884175.64,30033,9.13,73778.5,-2.27,-4.21,-4.41,0,*52
1510884176.85,30034,9.13,73780.0,-2.27,-4.21,-4.45,0,*51
1510884178.05,30035,9.13,73780.5,-2.27,-4.17,-4.41,0,*51
1510884179.25,30036,9.13,73782.5,-2.27,-4.21,-4.45,0,*53
1510884180.46,30037,9.13,73782.5,-2.27,-4.21,-4.41,0,*56
1510884181.65,30038,9.13,73780.0,-2.27,-4.17,-4.45,0,*58
1510884182.85,30039,9.13,73782.5,-2.27,-4.21,-4.45,0,*5C
1510884184.06,30040,9.06,73780.3,-2.23,-4.21,-4.45,0,*56
1510884185.27,30041,9.06,73780.0,-2.23,-4.21,-4.41,0,*53
1510884186.46,30042,9.13,73780.5,-2.23,-4.17,-4.45,0,*51
1510884187.66,30043,9.13,73780.5,-2.23,-4.17,-4.45,0,*50
1510884188.85,30044,9.13,73780.5,-2.23,-4.17,-4.45,0,*57
1510884190.05,30045,9.13,73780.8,-2.23,-4.29,-4.45,0,*5B
1510884191.25,30046,9.13,73782.0,-2.23,-4.21,-4.45,0,*50
1510884192.45,30047,9.06,73776.8,-2.27,-4.17,-4.41,0,*54
1510884193.65,30048,9.06,73782.0,-2.23,-4.17,-4.45,0,*5B
1510884194.84,30049,9.06,73780.3,-2.27,-4.17,-4.45,0,*5E
1510884196.05,30050,9.13,73780.5,-2.27,-4.21,-4.57,0,*50
1510884197.26,30051,9.06,73780.8,-2.27,-4.29,-4.53,0,*5D
1510884198.46,30052,9.06,73782.0,-2.27,-4.29,-4.53,0,*5E
1510884199.67,30053,9.06,73780.8,-2.27,-4.33,-4.57,0,*50
1510884200.87,30054,9.13,73780.3,-2.27,-4.33,-4.61,0,*52
1510884202.08,30055,9.13,73786.5,-2.27,-4.21,-4.53,0,*51
1510884203.29,30056,9.13,73784.0,-2.27,-4.29,-4.57,0,*5E
1510884204.49,30057,9.13,73784.8,-2.27,-4.29,-4.57,0,*5F
1510884205.7,30058,9.13,73780.0,-2.27,-4.33,-4.53,0,*5F
1510884206.9,30059,9.13,73782.0,-2.27,-4.33,-4.53,0,*5E
1510884208.12,30060,9.13,73780.3,-2.29,-4.37,-4.61,0,*5F
1510884209.33,30061,9.06,73778.0,-2.27,-4.33,-4.53,0,*55
1510884210.53,30062,9.13,73782.3,-2.27,-4.33,-4.57,0,*52
1510884211.74,30063,9.13,73784.0,-2.27,-4.33,-4.53,0,*57
1510884212.94,30064,9.06,73778.0,-2.27,-4.29,-4.57,0,*5F
1510884214.15,30065,9.06,73778.0,-2.27,-4.29,-4.57,0,*5E
1510884215.35,30066,9.06,73778.8,-2.27,-4.29,-4.57,0,*5D
1510884216.56,30067,9.06,73778.3,-2.27,-4.33,-4.57,0,*57
1510884217.78,30068,9.13,73782.5,-2.29,-4.37,-4.57,0,*52
1510884218.99,30069,9.13,73786.0,-2.27,-4.33,-4.57,0,*59
1510884220.22,30070,9.13,73780.3,-2.29,-4.33,-4.61,0,*5A
1510884221.42,30071,9.13,73780.0,-2.27,-4.29,-4.53,0,*5F
1510884222.62,30072,9.13,73782.5,-2.27,-4.29,-4.53,0,*5C
1510884223.83,30073,9.13,73782.0,-2.27,-4.29,-4.57,0,*59
1510884225.03,30074,9.06,73780.5,-2.27,-4.29,-4.53,0,*5A
1510884226.26,30075,9.13,73782.8,-2.29,-4.33,-4.61,0,*5F
1510884227.46,30076,9.13,73784.8,-2.27,-4.29,-4.53,0,*58
1510884228.67,30077,9.13,73782.0,-2.27,-4.21,-4.57,0,*55
1510884229.88,30078,9.13,73782.5,-2.27,-4.29,-4.57,0,*52
1510884231.08,30079,9.06,73782.8,-2.27,-4.29,-4.57,0,*53
1510884232.29,30080,9.13,73784.0,-2.27,-4.29,-4.57,0,*55
1510884233.49,30081,9.13,73782.8,-2.27,-4.33,-4.57,0,*5F
1510884234.7,30082,9.06,73780.5,-2.27,-4.29,-4.57,0,*57
1510884235.9,30083,9.13,73784.3,-2.27,-4.33,-4.57,0,*5D
1510884237.11,30084,9.13,73784.8,-2.27,-4.29,-4.57,0,*51
1510884238.31,30085,9.13,73780.0,-2.27,-4.29,-4.57,0,*50
1510884239.52,30086,9.06,73780.8,-2.27,-4.33,-4.57,0,*58
1510884240.74,30087,9.13,73780.3,-2.29,-4.37,-4.61,0,*56
1510884241.95,30088,9.13,73780.8,-2.27,-4.33,-4.57,0,*56
1510884243.15,30089,9.13,73776.8,-2.27,-4.29,-4.57,0,*5C
1510884244.36,30090,9.13,73778.5,-2.27,-4.33,-4.57,0,*5F
1510884245.56,30091,9.13,73782.8,-2.27,-4.41,-4.57,0,*5B
1510884246.77,30092,9.13,73786.0,-2.27,-4.33,-4.57,0,*5D
1510884247.99,30093,9.13,73782.3,-2.29,-4.37,-4.61,0,*53
1510884249.19,30094,9.13,73784.3,-2.27,-4.41,-4.57,0,*5E
1510884250.39,30095,9.13,73780.8,-2.27,-4.41,-4.57,0,*5F
1510884251.61,30096,9.13,73780.8,-2.29,-4.37,-4.61,0,*56
1510884252.82,30097,9.13,73780.8,-2.27,-4.41,-4.65,0,*5C
1510884254.06,30098,9.13,73784.3,-2.29,-4.45,-4.69,0,*55
1510884255.26,30099,9.13,73782.5,-2.27,-4.33,-4.65,0,*57
1510884256.47,30100,9.13,73782.0,-2.27,-4.33,-4.61,0,*52
1510884257.68,30101,9.13,73780.3,-2.27,-4.33,-4.57,0,*56
1510884258.88,30102,9.13,73780.3,-2.27,-4.33,-4.57,0,*55
1510884260.1,30103,9.06,73778.3,-2.29,-4.37,-4.61,0,*5B
1510884261.31,30104,9.06,73780.8,-2.27,-4.33,-4.65,0,*52
1510884262.53,30105,9.13,73784.8,-2.29,-4.45,-4.61,0,*58
1510884263.75,30106,9.13,73782.3,-2.29,-4.37,-4.61,0,*5E
1510884264.97,30107,9.13,73782.5,-2.29,-4.37,-4.61,0,*5F
1510884266.19,30108,9.13,73780.0,-2.29,-4.37,-4.61,0,*50
1510884267.4,30109,9.13,73782.0,-2.27,-4.33,-4.57,0,*5E
1510884268.63,30110,9.13,73782.0,-2.29,-4.33,-4.61,0,*5D
1510884269.88,30111,9.06,73776.8,-2.29,-4.33,-4.69,0,*54
1510884271.09,30112,9.13,73786.5,-2.27,-4.41,-4.57,0,*51
1510884272.29,30113,9.13,73786.3,-2.27,-4.33,-4.57,0,*55
1510884273.52,30114,9.06,73782.0,-2.29,-4.33,-4.61,0,*59
1510884274.77,30115,9.13,73782.3,-2.29,-4.37,-4.69,0,*54
1510884275.97,30116,9.06,73776.5,-2.27,-4.33,-4.65,0,*51
1510884277.17,30117,9.13,73780.5,-2.27,-4.41,-4.65,0,*55
1510884278.42,30118,9.13,73782.0,-2.29,-4.37,-4.69,0,*59
1510884279.63,30119,9.13,73782.8,-2.27,-4.33,-4.65,0,*5E
1510884280.83,30120,9.13,73782.3,-2.27,-4.41,-4.65,0,*51
1510884282.07,30121,9.13,73780.5,-2.29,-4.45,-4.69,0,*56
1510884283.27,30122,9.13,73782.8,-2.27,-4.41,-4.65,0,*53
1510884284.52,30123,9.13,73780.3,-2.29,-4.37,-4.69,0,*51
1510884285.74,30124,9.13,73782.5,-2.27,-4.41,-4.69,0,*59
1510884286.99,30125,9.13,73782.8,-2.29,-4.37,-4.69,0,*57
1510884288.24,30126,9.13,73784.3,-2.29,-4.37,-4.69,0,*54
1510884289.46,30127,9.13,73782.5,-2.27,-4.41,-4.69,0,*5A
1510884290.71,30128,9.06,73780.0,-2.29,-4.49,-4.69,0,*53
1510884291.94,30129,9.06,73780.5,-2.27,-4.33,-4.69,0,*51
1510884293.14,30130,9.06,73782.3,-2.27,-4.33,-4.65,0,*55
1510884294.39,30131,9.06,73780.8,-2.29,-4.49,-4.73,0,*50
1510884295.63,30132,9.13,73784.8,-2.29,-4.45,-4.69,0,*54
1510884296.83,30133,9.13,73786.3,-2.27,-4.41,-4.65,0,*53
1510884298.08,30134,9.13,73786.8,-2.29,-4.37,-4.69,0,*57
1510884299.3,30135,9.13,73782.3,-2.29,-4.45,-4.65,0,*5F
1510884300.5,30136,9.13,73782.3,-2.27,-4.33,-4.65,0,*53
1510884301.75,30137,9.13,73784.0,-2.29,-4.49,-4.69,0,*5D
1510884302.99,30138,9.13,73780.5,-2.29,-4.49,-4.69,0,*52
1510884304.2,30139,9.06,73782.8,-2.27,-4.41,-4.65,0,*59
1510884305.44,30140,9.06,73778.8,-2.29,-4.49,-4.73,0,*56
1510884306.66,30141,9.13,73784.8,-2.27,-4.41,-4.69,0,*5A
1510884307.91,30142,9.13,73780.0,-2.29,-4.49,-4.69,0,*5F
1510884309.13,30143,9.13,73780.8,-2.27,-4.41,-4.73,0,*53
1510884310.38,30144,9.13,73782.8,-2.29,-4.49,-4.77,0,*56
1510884311.62,30145,9.06,73782.0,-2.29,-4.45,-4.73,0,*5F
1510884312.87,30146,9.13,73780.8,-2.29,-4.57,-4.77,0,*5B
1510884314.12,30147,9.06,73780.3,-2.29,-4.57,-4.77,0,*5A
1510884315.36,30148,9.13,73784.0,-2.29,-4.49,-4.73,0,*5E
1510884316.58,30149,9.13,73780.8,-2.27,-4.45,-4.69,0,*56
1510884317.82,30150,9.13,73780.8,-2.29,-4.49,-4.69,0,*5C
1510884319.07,30151,9.06,73782.0,-2.29,-4.49,-4.73,0,*56
1510884320.31,30152,9.13,73784.0,-2.29,-4.49,-4.69,0,*5E
1510884321.55,30153,9.13,73782.3,-2.29,-4.45,-4.73,0,*58
1510884322.78,30154,9.13,73782.5,-2.31,-4.49,-4.73,0,*5A
1510884324.01,30155,9.06,73782.0,-2.31,-4.57,-4.73,0,*54
1510884325.25,30156,9.13,73782.0,-2.29,-4.49,-4.69,0,*5A
1510884326.5,30157,9.13,73782.8,-2.29,-4.49,-4.73,0,*50
1510884327.74,30158,9.06,73778.8,-2.29,-4.49,-4.73,0,*5F
1510884328.97,30159,9.13,73778.5,-2.27,-4.41,-4.69,0,*53
1510884330.21,30160,9.13,73776.0,-2.29,-4.37,-4.73,0,*5D
1510884331.45,30161,9.13,73778.8,-2.29,-4.45,-4.69,0,*52
1510884332.68,30162,9.13,73778.8,-2.27,-4.41,-4.69,0,*5B
1510884333.9,30163,9.13,73778.3,-2.29,-4.49,-4.61,0,*54
1510884335.12,30164,9.06,73774.5,-2.29,-4.45,-4.57,0,*5A
1510884336.33,30165,9.06,73774.0,-2.27,-4.33,-4.53,0,*50
1510884337.55,30166,9.06,73774.3,-2.29,-4.37,-4.53,0,*59
1510884338.78,30167,9.06,73774.5,-2.29,-4.33,-4.57,0,*58
1510884339.98,30168,9.13,73778.0,-2.27,-4.33,-4.57,0,*59
1510884341.21,30169,9.06,73778.3,-2.29,-4.37,-4.61,0,*57
1510884342.43,30170,9.13,73776.8,-2.29,-4.49,-4.61,0,*56
1510884343.63,30171,9.13,73780.3,-2.31,-4.45,-4.61,0,*52
1510884344.84,30172,9.06,73778.5,-2.29,-4.45,-4.57,0,*5D
1510884346.07,30173,9.13,73778.8,-2.29,-4.49,-4.61,0,*55
1510884347.29,30174,9.06,73776.0,-2.29,-4.45,-4.61,0,*5E
1510884348.5,30175,9.13,73782.5,-2.29,-4.45,-4.61,0,*5F
1510884349.73,30176,9.06,73780.0,-2.29,-4.49,-4.61,0,*50
1510884350.92,30177,9.06,73780.3,-2.27,-4.45,-4.65,0,*57
1510884352.16,30178,9.13,73780.0,-2.29,-4.49,-4.73,0,*5D
1510884353.36,30179,9.06,73780.8,-2.27,-4.53,-4.65,0,*5E
1510884354.59,30180,9.13,73782.3,-2.29,-4.57,-4.65,0,*52
1510884355.82,30181,9.13,73780.0,-2.31,-4.57,-4.73,0,*5D
1510884357.07,30182,9.06,73778.8,-2.29,-4.57,-4.73,0,*57
1510884358.32,30183,9.06,73778.3,-2.29,-4.57,-4.73,0,*56
1510884359.57,30184,9.13,73782.3,-2.29,-4.61,-4.73,0,*54
1510884360.82,30185,9.13,73778.8,-2.29,-4.57,-4.73,0,*50
1510884362.07,30186,9.06,73774.8,-2.29,-4.61,-4.73,0,*56
1510884363.27,30187,9.06,73778.0,-2.27,-4.57,-4.65,0,*5B
1510884364.52,30188,9.13,73778.3,-2.29,-4.61,-4.73,0,*58
1510884365.77,30189,9.13,73780.0,-2.29,-4.61,-4.73,0,*59
1510884367.02,30190,9.13,73780.0,-2.29,-4.57,-4.73,0,*54
1510884368.26,30191,9.13,73778.5,-2.29,-4.61,-4.73,0,*50
1510884369.49,30192,9.13,73776.0,-2.31,-4.61,-4.69,0,*51
1510884370.73,30193,9.13,73778.8,-2.31,-4.57,-4.69,0,*55
1510884371.98,30194,9.13,73778.5,-2.29,-4.57,-4.69,0,*5B
1510884373.23,30195,9.13,73778.0,-2.29,-4.57,-4.69,0,*5A
1510884374.48,30196,9.06,73776.3,-2.29,-4.61,-4.69,0,*5C
1510884375.73,30197,9.06,73776.8,-2.29,-4.61,-4.73,0,*56
1510884376.97,30198,9.06,73772.3,-2.29,-4.61,-4.73,0,*59
1510884378.22,30199,9.06,73776.0,-2.29,-4.61,-4.69,0,*53
1510884379.47,30200,9.13,73776.0,-2.29,-4.61,-4.69,0,*50
1510884380.7,30201,9.06,73776.3,-2.31,-4.61,-4.69,0,*58
1510884381.93,30202,9.06,73772.0,-2.31,-4.61,-4.69,0,*5B
1510884383.18,30203,9.06,73776.5,-2.29,-4.61,-4.69,0,*53
1510884384.43,30204,9.06,73776.8,-2.29,-4.61,-4.69,0,*54
1510884385.68,30205,9.06,73776.0,-2.29,-4.61,-4.73,0,*5E
1510884386.93,30206,9.13,73778.5,-2.29,-4.57,-4.69,0,*53
1510884388.18,30207,9.06,73778.3,-2.29,-4.61,-4.69,0,*57
1510884389.43,30208,9.06,73778.8,-2.29,-4.57,-4.69,0,*5D
1510884390.66,30209,9.13,73782.3,-2.31,-4.61,-4.69,0,*50
1510884391.89,30210,9.06,73776.3,-2.31,-4.57,-4.69,0,*5D
1510884393.09,30211,9.06,73776.0,-2.31,-4.49,-4.61,0,*5B
1510884394.29,30212,9.06,73774.5,-2.31,-4.45,-4.61,0,*54
1510884395.52,30213,9.13,73780.5,-2.29,-4.33,-4.57,0,*58
1510884396.72,30214,9.13,73778.5,-2.31,-4.37,-4.61,0,*57
1510884397.94,30215,9.06,73778.0,-2.29,-4.37,-4.61,0,*5F
1510884399.16,30216,9.06,73776.8,-2.29,-4.45,-4.61,0,*59
1510884400.36,30217,9.06,73778.3,-2.31,-4.37,-4.57,0,*51
1510884401.56,30218,9.06,73776.8,-2.31,-4.49,-4.61,0,*52
1510884402.77,30219,9.06,73776.8,-2.31,-4.49,-4.61,0,*53
1510884403.97,30220,9.13,73782.5,-2.31,-4.49,-4.57,0,*5C
1510884405.17,30221,9.06,73776.3,-2.31,-4.45,-4.57,0,*51
1510884406.38,30222,9.13,73780.5,-2.29,-4.45,-4.49,0,*54
1510884407.6,30223,9.13,73778.8,-2.29,-4.45,-4.49,0,*55
1510884408.82,30224,9.13,73776.5,-2.29,-4.33,-4.33,0,*5E
1510884410.05,30225,9.06,73772.5,-2.29,-4.21,-4.25,0,*5B
1510884411.29,30226,9.06,73774.8,-2.29,-4.21,-4.21,0,*5C
1510884412.53,30227,9.06,73772.5,-2.29,-4.21,-4.21,0,*5D
1510884413.76,30228,9.13,73776.8,-2.29,-4.21,-4.21,0,*52
1510884415.0,30229,9.13,73778.3,-2.29,-4.21,-4.21,0,*53
1510884416.23,30230,9.06,73774.3,-2.29,-4.21,-4.21,0,*5B
1510884417.47,30231,9.13,73778.5,-2.29,-4.21,-4.25,0,*5E
1510884418.69,30232,9.06,73774.5,-2.29,-4.25,-4.33,0,*5E
1510884419.92,30233,9.13,73778.3,-2.29,-4.25,-4.37,0,*5B
1510884421.15,30234,9.06,73774.5,-2.29,-4.33,-4.33,0,*5F
1510884422.37,30235,9.06,73774.0,-2.29,-4.37,-4.37,0,*5E
1510884423.59,30236,9.06,73776.0,-2.29,-4.33,-4.33,0,*5D
1510884424.82,30237,9.13,73776.5,-2.29,-4.33,-4.33,0,*5C
1510884426.05,30238,9.06,73774.8,-2.29,-4.33,-4.37,0,*57
1510884427.28,30239,9.06,73776.3,-2.29,-4.21,-4.37,0,*55
1510884428.51,30240,9.06,73778.5,-2.29,-4.25,-4.37,0,*5F
1510884429.73,30241,9.06,73776.8,-2.29,-4.37,-4.45,0,*58
1510884430.95,30242,9.13,73778.8,-2.29,-4.33,-4.45,0,*5F
1510884432.16,30243,9.13,73780.5,-2.29,-4.37,-4.45,0,*5A
1510884433.39,30244,9.06,73778.0,-2.29,-4.33,-4.45,0,*59
1510884434.61,30245,9.06,73778.0,-2.29,-4.33,-4.45,0,*58
1510884435.84,30246,9.06,73778.5,-2.29,-4.33,-4.49,0,*57
1510884437.05,30247,9.06,73780.5,-2.29,-4.37,-4.45,0,*5E
1510884438.27,30248,9.06,73778.8,-2.29,-4.37,-4.49,0,*5D
1510884439.49,30249,9.13,73780.8,-2.29,-4.37,-4.49,0,*5C
1510884440.68,30250,9.06,73780.3,-2.31,-4.45,-4.49,0,*58
1510884441.9,30251,9.13,73782.8,-2.29,-4.45,-4.49,0,*50
1510884443.11,30252,9.06,73780.8,-2.29,-4.45,-4.45,0,*5F
1510884444.32,30253,9.06,73778.3,-2.29,-4.45,-4.45,0,*5E
1510884445.53,30254,9.13,73782.8,-2.27,-4.33,-4.41,0,*52
1510884446.74,30255,9.06,73780.0,-2.29,-4.37,-4.49,0,*51
1510884447.96,30256,9.06,73784.3,-2.29,-4.37,-4.49,0,*52
1510884449.16,30257,9.06,73782.8,-2.31,-4.37,-4.49,0,*5A
1510884450.38,30258,9.06,73782.0,-2.29,-4.37,-4.45,0,*50
1510884451.6,30259,9.13,73782.8,-2.29,-4.33,-4.45,0,*55
1510884452.82,30260,9.06,73782.8,-2.29,-4.37,-4.49,0,*57
1510884454.04,30261,9.06,73780.8,-2.29,-4.49,-4.57,0,*50
1510884455.26,30262,9.06,73780.5,-2.29,-4.45,-4.57,0,*5F
1510884456.48,30263,9.06,73782.0,-2.29,-4.49,-4.61,0,*57
1510884457.7,30264,9.06,73782.0,-2.29,-4.49,-4.61,0,*50
1510884458.92,30265,9.06,73784.0,-2.29,-4.49,-4.61,0,*51
1510884460.12,30266,9.06,73782.3,-2.27,-4.49,-4.61,0,*5C
1510884461.34,30267,9.06,73782.8,-2.29,-4.49,-4.57,0,*56
1510884462.56,30268,9.13,73788.8,-2.29,-4.45,-4.61,0,*50
1510884463.78,30269,9.13,73784.5,-2.29,-4.49,-4.61,0,*5D
1510884465.0,30270,9.06,73782.0,-2.29,-4.49,-4.61,0,*55
1510884466.21,30271,9.06,73782.8,-2.31,-4.49,-4.61,0,*5D
1510884467.43,30272,9.06,73782.0,-2.29,-4.49,-4.61,0,*57
1510884468.66,30273,9.06,73776.8,-2.29,-4.57,-4.61,0,*59
1510884469.88,30274,9.06,73780.0,-2.29,-4.49,-4.61,0,*51
1510884471.1,30275,9.06,73778.0,-2.29,-4.49,-4.57,0,*55
1510884472.31,30276,9.06,73774.5,-2.31,-4.57,-4.61,0,*55
1510884473.52,30277,9.06,73778.5,-2.31,-4.57,-4.61,0,*54
1510884474.72,30278,9.06,73778.8,-2.31,-4.49,-4.61,0,*54
1510884475.92,30279,9.13,73780.0,-2.31,-4.45,-4.61,0,*59
1510884477.12,30280,9.13,73780.8,-2.31,-4.57,-4.61,0,*5C
1510884478.32,30281,9.06,73776.3,-2.31,-4.49,-4.61,0,*52
1510884479.52,30282,9.06,73776.3,-2.31,-4.49,-4.61,0,*51
1510884480.73,30283,9.06,73776.5,-2.31,-4.49,-4.61,0,*50
1510884481.93,30284,9.06,73776.8,-2.31,-4.49,-4.61,0,*57
1510884483.13,30285,9.06,73778.5,-2.31,-4.49,-4.61,0,*56
1510884484.33,30286,9.06,73774.8,-2.31,-4.49,-4.61,0,*55
1510884485.53,30287,9.06,73776.5,-2.31,-4.49,-4.57,0,*51
1510884486.73,30288,9.06,73778.3,-2.31,-4.45,-4.61,0,*57
1510884487.95,30289,9.06,73778.8,-2.33,-4.53,-4.65,0,*57
1510884489.18,30290,9.06,73782.0,-2.29,-4.49,-4.57,0,*5E
1510884490.4,30291,9.13,73780.8,-2.29,-4.49,-4.61,0,*5A
1510884491.62,30292,9.13,73782.3,-2.29,-4.45,-4.57,0,*50
1510884492.84,30293,9.06,73782.8,-2.29,-4.49,-4.57,0,*5D
1510884494.06,30294,9.06,73782.3,-2.29,-4.45,-4.61,0,*53
1510884495.28,30295,9.06,73780.3,-2.29,-4.37,-4.57,0,*52
1510884496.5,30296,9.06,73782.3,-2.29,-4.37,-4.61,0,*54
1510884497.73,30297,9.06,73782.5,-2.29,-4.37,-4.57,0,*50
1510884498.94,30298,9.06,73780.8,-2.29,-4.37,-4.49,0,*50
1510884500.16,30299,9.06,73782.5,-2.29,-4.37,-4.49,0,*51
1510884501.37,30300,9.06,73782.0,-2.31,-4.33,-4.49,0,*5D
1510884502.57,30301,9.13,73784.8,-2.31,-4.33,-4.49,0,*5C
1510884503.8,30302,9.06,73780.5,-2.29,-4.33,-4.57,0,*59
1510884505.03,30303,9.06,73780.5,-2.29,-4.37,-4.61,0,*59
1510884506.23,30304,9.13,73786.0,-2.31,-4.37,-4.61,0,*57
1510884507.43,30305,9.06,73784.5,-2.31,-4.37,-4.49,0,*5C
1510884508.66,30306,9.06,73780.3,-2.29,-4.33,-4.57,0,*5D
1510884509.88,30307,9.06,73782.8,-2.29,-4.33,-4.49,0,*53
1510884511.09,30308,9.06,73778.3,-2.31,-4.33,-4.49,0,*55